PROBA-1 1 26958U 01049B 26094.98268874 .00005007 00000+0 32555-3 0 9991 2 26958 97.9625 100.9662 0055606 12.1345 348.1206 15.07206841332592 CUTE-1 (CO-55) 1 27844U 03031E 26094.90787148 .00000458 00000+0 21706-3 0 9992 2 27844 98.6769 104.3819 0010330 44.1205 316.0797 14.24289255181242 CUBESAT XI-IV (CO-57) 1 27848U 03031J 26094.93002092 .00000375 00000+0 18379-3 0 9997 2 27848 98.6802 104.1755 0010476 60.6345 299.5879 14.23580823180957 APRIZESAT 4 1 35684U 09041D 26094.75356892 .00001466 00000+0 18129-3 0 9996 2 35684 98.1446 168.6079 0042977 198.1113 161.8571 14.83766347900478 APRIZESAT 3 1 35686U 09041F 26094.93123310 .00002071 00000+0 18383-3 0 9990 2 35686 98.1949 244.6990 0061141 309.5847 49.9982 14.95999151905427 PROBA-2 1 36037U 09059B 26094.51213173 .00000412 00000+0 10642-3 0 9998 2 36037 98.2445 278.8865 0013928 144.1332 216.0803 14.54809913870816 APRIZESAT 5 1 37792U 11044E 26094.76908847 .00001777 00000+0 23225-3 0 9996 2 37792 98.2422 25.7540 0051115 238.4929 121.1283 14.80936231787928 APRIZESAT 6 1 37793U 11044F 26094.70354677 .00001534 00000+0 22341-3 0 9996 2 37793 98.2400 3.6943 0042413 322.6203 97.0221 14.76814605786308 PROBA-V 1 39159U 13021A 26094.88203528 .00000116 00000+0 69106-4 0 9994 2 39159 98.3542 77.1277 0004138 4.5458 355.5759 14.23581102670686 APRIZESAT 7 1 39416U 13066A 26094.82559815 .00002983 00000+0 30062-3 0 9998 2 39416 97.7645 49.1403 0037582 94.3347 266.2167 14.91379381670299 APRIZESAT 8 1 39425U 13066K 26094.82274890 .00001815 00000+0 20246-3 0 9991 2 39425 97.8159 43.3529 0046354 165.5407 194.7148 14.87498252668767 BUGSAT-1 (TITA) 1 40014U 14033E 26094.93118696 .00008337 00000+0 44713-3 0 9996 2 40014 98.0410 183.2497 0029610 72.2350 288.2108 15.14868091644741 SAUDISAT 4 1 40016U 14033G 26094.67010286 .00001207 00000+0 16608-3 0 9996 2 40016 97.7466 243.3947 0043801 313.9070 45.8529 14.79438774635206 APRIZESAT 9 1 40018U 14033J 26094.90187636 .00001077 00000+0 16522-3 0 9998 2 40018 97.8935 229.9428 0067545 76.2986 284.5730 14.74130831632762 APRIZESAT 10 1 40019U 14033K 26094.92770867 .00001166 00000+0 18979-3 0 9992 2 40019 97.9527 223.5736 0079708 146.9596 213.6627 14.70806738631487 TECHDEMOSAT-1 (TDS-1) 1 40076U 14037H 26094.93318425 .00010954 00000+0 63889-3 0 9993 2 40076 98.3805 79.9682 0007433 143.2906 216.8832 15.12148547637155 TECHNOSAT 1 42829U 17042E 26094.90074005 .00004874 00000+0 35099-3 0 9996 2 42829 97.4204 255.4061 0017232 350.4471 9.6425 15.04517637475680 FLYING LAPTOP 1 42831U 17042G 26094.91720392 .00006945 00000+0 55030-3 0 9995 2 42831 97.4361 253.4409 0019777 13.8827 346.2937 15.00708356475462 HAWK-A 1 43765U 18099H 26094.88384449 .00010424 00000+0 42943-3 0 9996 2 43765 97.3993 148.0978 0035735 180.8728 179.2453 15.23689611401931 HAWK-B 1 43794U 18099AN 26094.88527765 .00009488 00000+0 41317-3 0 9990 2 43794 97.4041 147.6635 0032326 197.9708 162.0388 15.21949789401887 HAWK-C 1 43799U 18099AT 26094.69399668 .00013798 00000+0 51083-3 0 9993 2 43799 97.3968 148.4726 0041665 183.2795 176.8177 15.26946009402695 SALSAT 1 46495U 20068K 26094.92565563 .00011043 00000+0 39771-3 0 9994 2 46495 97.8866 93.5938 0009535 188.9473 171.1597 15.28723924304161 HAWK-2C 1 47502U 21006CT 26094.64641870 .00009718 00000+0 29960-3 0 9997 2 47502 97.2355 140.4409 0008890 103.6680 256.5553 15.33760845288227 HAWK-2A 1 47505U 21006CW 26094.84527094 .00008630 00000+0 26625-3 0 9990 2 47505 97.2402 141.2706 0008463 106.1480 254.0695 15.33775909288254 HAWK-2B 1 47508U 21006CZ 26094.58143185 .00011630 00000+0 35794-3 0 9990 2 47508 97.2275 139.4657 0009052 104.8207 255.4040 15.33764580288214 HAWK-3B 1 48931U 21059BE 26094.48487559 .00048063 00000+0 51201-3 0 9995 2 48931 97.6710 284.5446 0005023 229.5418 130.5402 15.63839292266312 HAWK-3C 1 48948U 21059BX 26094.48455443 .00045557 00000+0 48550-3 0 9998 2 48948 97.6847 290.0958 0005279 230.6351 129.4440 15.63839035266317 HAWK-3A 1 48957U 21059CG 26094.48444441 .00046705 00000+0 49775-3 0 9990 2 48957 97.6786 287.3615 0005071 230.0017 130.0796 15.63834080266318 HAWK-5C 1 52754U 22057Y 26094.90195366 .00024067 00000+0 44939-3 0 9999 2 52754 97.6501 250.0473 0004271 342.9128 17.1977 15.48764577214998 HAWK-5B 1 52756U 22057AA 26094.90177897 .00022204 00000+0 41485-3 0 9994 2 52756 97.6506 248.3882 0004132 336.2768 23.8290 15.48764836214991 HAWK-5A 1 52757U 22057AB 26094.90158043 .00023931 00000+0 44678-3 0 9992 2 52757 97.6505 249.2223 0004637 339.2605 20.8456 15.48769176214996 HAWK-6B 1 55324U 23011A 26094.59031637 .00008709 00000+0 37850-3 0 9990 2 55324 40.4993 61.1171 0004608 246.4553 113.5772 15.22261292176624 HAWK-6C 1 55326U 23011C 26094.58971765 .00009053 00000+0 39309-3 0 9990 2 55326 40.4989 57.9676 0004472 236.6872 123.3509 15.22263393176630 HAWK-6A 1 55327U 23011D 26094.58974181 .00009027 00000+0 39198-3 0 9993 2 55327 40.5002 59.5850 0004243 237.9205 122.1192 15.22262660176631 HAWK-7A 1 56191U 23054P 26094.64943425 .00011640 00000+0 44701-3 0 9994 2 56191 97.2794 343.8590 0001611 333.9650 26.1508 15.26601911165806 HAWK-7B 1 56193U 23054R 26094.64933984 .00009396 00000+0 36149-3 0 9997 2 56193 97.2819 342.0962 0001386 6.4578 353.6678 15.26597683165806 HAWK-7C 1 56200U 23054Y 26094.64923241 .00009553 00000+0 36753-3 0 9997 2 56200 97.2794 342.8884 0001042 343.6684 16.4522 15.26594154165803